Location: Hradec Kralove
(50.2170°N, 15.8330°E)
Time: 11:18:48
(UTC+01:00)

Vanguard 3 - Visible Passes

Search period start: 29 November 2023 00:00
Search period end: 09 December 2023 00:00
Orbit: 507 x 3241 km, 33.3° (Epoch: 29 November)

Date Brightness Start Highest point End Pass type
(mag) Time Alt. Az. Time Alt. Az. Time Alt. Az.
05 Dec 10.7 20:10:49 10° S 20:14:20 14° S 20:14:20 14° S visible
06 Dec 10.6 18:55:47 10° S 19:00:24 12° SSE 19:01:56 12° SE visible
06 Dec 10.7 21:03:21 10° SSW 21:06:15 15° SSW 21:06:15 15° SSW visible
07 Dec 10.4 19:45:42 10° SSW 19:53:50 19° SSE 19:53:50 19° SSE visible
07 Dec 11.0 21:57:31 10° SW 21:58:10 11° SW 21:58:10 11° SW visible
08 Dec 10.5 18:29:32 10° S 18:37:31 15° SSE 18:41:23 14° SE visible
08 Dec 10.4 20:38:50 10° SW 20:45:43 22° SSW 20:45:43 22° SSW visible
